When you browse on this site, cookies collect data to enhance your experience and personalize the content and advertising you see.
Visit our Privacy Policy to learn more. By continuing to use the site, you agree to this use of cookies and data.
  • In Portugal
  • List of Countries
  • For 7 days
  • Water Temperature
  • Weather Map
  • Weather Widgets
  • user-avatar
    Login

    Hourly Weather Canberra

    Today, 15 December, Sunday

    Time Temperature Precipitation Wind Pressure Humidity
    00:00 +15°C° 0 mm 1 mps 707 mmHg 92%
    01:00 +15°C° 0 mm 1 mps 706 mmHg 91%
    02:00 +15°C° 0 mm 1 mps 706 mmHg 92%
    03:00 +14°C° 0 mm 1 mps 705 mmHg 94%
    04:00 +13°C° 0 mm 0 mps 705 mmHg 95%
    05:00 +15°C° 0 mm 1 mps 705 mmHg 90%
    06:00 +16°C° 0 mm 1 mps 705 mmHg 84%
    07:00 +18°C° 0 mm 1 mps 705 mmHg 79%
    08:00 +20°C° 0 mm 3 mps 706 mmHg 62%
    09:00 +23°C° 0 mm 4 mps 706 mmHg 46%
    10:00 +27°C° 0 mm 5 mps 706 mmHg 30%
    11:00 +28°C° 0 mm 5 mps 705 mmHg 28%
    12:00 +29°C° 0 mm 6 mps 705 mmHg 26%
    13:00 +30°C° 0 mm 6 mps 704 mmHg 23%
    14:00 +30°C° 0 mm 6 mps 704 mmHg 23%
    15:00 +30°C° 0 mm 6 mps 704 mmHg 22%
    16:00 +29°C° 0 mm 6 mps 704 mmHg 21%
    17:00 +28°C° 0 mm 5 mps 704 mmHg 24%
    18:00 +26°C° 0 mm 4 mps 704 mmHg 27%
    19:00 +24°C° 0 mm 3 mps 704 mmHg 30%
    20:00 +23°C° 0 mm 2 mps 704 mmHg 33%
    21:00 +20°C° 0 mm 2 mps 704 mmHg 37%
    22:00 +19°C° 0 mm 1 mps 705 mmHg 41%
    23:00 +18°C° 0 mm 1 mps 704 mmHg 41%

    Tomorrow, 16 December, Monday

    Time Temperature Precipitation Wind Pressure Humidity
    00:00 +16°C° 0 mm 1 mps 704 mmHg 40%
    01:00 +15°C° 0 mm 1 mps 704 mmHg 40%
    02:00 +15°C° 0 mm 1 mps 704 mmHg 41%
    03:00 +14°C° 0 mm 1 mps 704 mmHg 43%
    04:00 +13°C° 0 mm 1 mps 704 mmHg 44%
    05:00 +15°C° 0 mm 1 mps 705 mmHg 42%
    06:00 +18°C° 0 mm 1 mps 706 mmHg 40%
    07:00 +21°C° 0 mm 1 mps 707 mmHg 38%
    08:00 +24°C° 0 mm 1 mps 707 mmHg 32%
    09:00 +27°C° 0 mm 1 mps 708 mmHg 27%
    10:00 +29°C° 0 mm 1 mps 708 mmHg 21%
    11:00 +31°C° 0 mm 1 mps 708 mmHg 20%
    12:00 +32°C° 0 mm 1 mps 708 mmHg 19%
    13:00 +35°C° 0 mm 2 mps 708 mmHg 18%
    14:00 +33°C° 0 mm 3 mps 708 mmHg 24%
    15:00 +30°C° 0 mm 5 mps 708 mmHg 30%
    16:00 +29°C° 0 mm 6 mps 708 mmHg 36%
    17:00 +24°C° 0 mm 6 mps 708 mmHg 48%
    18:00 +21°C° 0 mm 5 mps 708 mmHg 60%
    19:00 +17°C° 0 mm 4 mps 709 mmHg 72%
    20:00 +15°C° 0 mm 4 mps 709 mmHg 77%
    21:00 +14°C° 0 mm 3 mps 710 mmHg 82%
    22:00 +14°C° 0 mm 2 mps 710 mmHg 87%
    23:00 +13°C° 0 mm 2 mps 710 mmHg 88%

    Day after tomorrow, 17 December, Tuesday

    Time Temperature Precipitation Wind Pressure Humidity
    00:00 +13°C° 0 mm 2 mps 710 mmHg 90%
    01:00 +12°C° 0 mm 1 mps 710 mmHg 92%
    02:00 +12°C° 0 mm 1 mps 710 mmHg 92%
    03:00 +12°C° 0 mm 1 mps 710 mmHg 92%
    04:00 +12°C° 0 mm 1 mps 710 mmHg 93%
    05:00 +14°C° 0 mm 1 mps 710 mmHg 83%
    06:00 +16°C° 0 mm 1 mps 711 mmHg 74%
    07:00 +19°C° 0 mm 1 mps 711 mmHg 64%
    08:00 +22°C° 0 mm 1 mps 712 mmHg 54%
    09:00 +25°C° 0 mm 1 mps 712 mmHg 43%
    10:00 +28°C° 0 mm 2 mps 713 mmHg 33%
    11:00 +30°C° 0 mm 2 mps 712 mmHg 28%
    12:00 +32°C° 0 mm 2 mps 712 mmHg 24%
    13:00 +35°C° 0 mm 2 mps 712 mmHg 20%
    14:00 +35°C° 0 mm 2 mps 711 mmHg 20%
    15:00 +35°C° 0 mm 3 mps 711 mmHg 20%
    16:00 +35°C° 0 mm 3 mps 711 mmHg 20%
    17:00 +30°C° 0 mm 4 mps 711 mmHg 29%
    18:00 +27°C° 0 mm 4 mps 711 mmHg 38%
    19:00 +23°C° 0 mm 4 mps 711 mmHg 46%
    20:00 +21°C° 0 mm 4 mps 711 mmHg 56%
    21:00 +18°C° 0 mm 3 mps 711 mmHg 65%
    22:00 +16°C° 0 mm 2 mps 711 mmHg 75%
    23:00 +15°C° 0 mm 1 mps 711 mmHg 78%

    18 December, Wednesday

    Time Temperature Precipitation Wind Pressure Humidity
    00:00 +14°C° 0 mm 1 mps 711 mmHg 80%
    01:00 +12°C° 0 mm 0 mps 711 mmHg 83%
    02:00 +13°C° 0 mm 1 mps 711 mmHg 82%
    03:00 +13°C° 0 mm 1 mps 710 mmHg 82%
    04:00 +13°C° 0 mm 1 mps 710 mmHg 81%
    05:00 +16°C° 0 mm 1 mps 711 mmHg 68%
    06:00 +21°C° 0 mm 1 mps 711 mmHg 56%
    07:00 +22°C° 0 mm 0 mps 712 mmHg 44%
    08:00 +27°C° 0 mm 1 mps 712 mmHg 36%
    09:00 +30°C° 0 mm 2 mps 712 mmHg 29%
    10:00 +35°C° 0 mm 3 mps 712 mmHg 22%
    11:00 +36°C° 0 mm 3 mps 711 mmHg 19%
    12:00 +38°C° 0 mm 4 mps 711 mmHg 17%
    13:00 +40°C° 0 mm 5 mps 710 mmHg 14%
    14:00 +40°C° 0 mm 5 mps 710 mmHg 14%
    15:00 +40°C° 0 mm 5 mps 710 mmHg 14%
    16:00 +40°C° 0 mm 5 mps 709 mmHg 13%
    17:00 +36°C° 0 mm 4 mps 709 mmHg 16%
    18:00 +34°C° 0 mm 3 mps 710 mmHg 19%
    19:00 +31°C° 0 mm 1 mps 710 mmHg 22%
    20:00 +28°C° 0 mm 1 mps 709 mmHg 26%
    21:00 +26°C° 0 mm 1 mps 709 mmHg 30%
    22:00 +24°C° 0 mm 1 mps 709 mmHg 34%
    23:00 +23°C° 0 mm 1 mps 709 mmHg 35%

    19 December, Thursday

    Time Temperature Precipitation Wind Pressure Humidity
    00:00 +20°C° 0 mm 0 mps 708 mmHg 36%
    01:00 +20°C° 0 mm 0 mps 707 mmHg 37%
    02:00 +19°C° 0 mm 0 mps 707 mmHg 37%
    03:00 +19°C° 0 mm 0 mps 707 mmHg 38%
    04:00 +18°C° 0 mm 0 mps 707 mmHg 38%
    05:00 +23°C° 0 mm 1 mps 708 mmHg 34%
    06:00 +26°C° 0 mm 2 mps 708 mmHg 30%
    07:00 +28°C° 0 mm 3 mps 709 mmHg 26%
    08:00 +32°C° 0 mm 4 mps 709 mmHg 23%
    09:00 +35°C° 0 mm 6 mps 709 mmHg 19%
    10:00 +39°C° 0 mm 7 mps 710 mmHg 16%
    11:00 +40°C° 0 mm 6 mps 709 mmHg 14%
    12:00 +42°C° 0 mm 6 mps 709 mmHg 12%
    13:00 +44°C° 0 mm 6 mps 709 mmHg 11%
    14:00 +43°C° 0 mm 5 mps 709 mmHg 11%
    15:00 +43°C° 0 mm 5 mps 709 mmHg 11%
    16:00 +42°C° 0 mm 5 mps 709 mmHg 12%
    17:00 +35°C° 0 mm 5 mps 709 mmHg 26%
    18:00 +28°C° 0 mm 4 mps 710 mmHg 40%
    19:00 +21°C° 0 mm 4 mps 710 mmHg 55%
    20:00 +19°C° 0 mm 4 mps 710 mmHg 64%
    21:00 +17°C° 0 mm 3 mps 711 mmHg 72%
    22:00 +16°C° 0 mm 3 mps 712 mmHg 81%
    23:00 +15°C° 0 mm 2 mps 711 mmHg 84%

    20 December, Friday

    Time Temperature Precipitation Wind Pressure Humidity
    00:00 +14°C° 0 mm 2 mps 711 mmHg 86%
    01:00 +13°C° 0 mm 1 mps 710 mmHg 89%
    02:00 +13°C° 0 mm 1 mps 710 mmHg 86%
    03:00 +13°C° 0 mm 1 mps 710 mmHg 83%
    04:00 +12°C° 0 mm 1 mps 710 mmHg 79%
    05:00 +15°C° 0 mm 1 mps 710 mmHg 65%
    06:00 +19°C° 0 mm 1 mps 711 mmHg 51%
    07:00 +21°C° 0 mm 2 mps 711 mmHg 37%
    08:00 +25°C° 0 mm 2 mps 711 mmHg 32%
    09:00 +28°C° 0 mm 2 mps 711 mmHg 27%
    10:00 +32°C° 0 mm 2 mps 711 mmHg 23%
    11:00 +35°C° 0 mm 3 mps 711 mmHg 19%
    12:00 +38°C° 0 mm 3 mps 710 mmHg 15%
    13:00 +42°C° 0 mm 4 mps 709 mmHg 11%
    14:00 +42°C° 0 mm 4 mps 709 mmHg 11%
    15:00 +43°C° 0 mm 5 mps 709 mmHg 11%
    16:00 +43°C° 0 mm 5 mps 708 mmHg 10%
    17:00 +40°C° 0 mm 4 mps 708 mmHg 14%
    18:00 +37°C° 0 mm 2 mps 708 mmHg 17%
    19:00 +33°C° 0 mm 1 mps 707 mmHg 20%
    20:00 +30°C° 0 mm 1 mps 707 mmHg 29%
    21:00 +27°C° 0 mm 1 mps 706 mmHg 38%
    22:00 +24°C° 0 mm 1 mps 706 mmHg 47%
    23:00 +23°C° 0 mm 1 mps 706 mmHg 49%
    Show more